Farmingdale, NY

8:22 AM EDT on October 20, 2019 (GMT -0400)
Republic

Weather History for KFRG - September, 2019

Change the Weather History Date:

Tuesday, September 17, 2019

  Actual Average Record
Temperature  
Mean Temperature 65 °F -  
Max Temperature 75 °F 72 °F 86 °F (2015)
Min Temperature 55 °F 57 °F 48 °F (2007)
Growing Degree Days 15 (Base 50)    
Moisture  
Dew Point 48 °F    
Average Humidity 57    
Maximum Humidity 80    
Minimum Humidity 32    
Precipitation  
Precipitation 0.00 in - - ()
Sea Level Pressure  
Sea Level Pressure 30.12 in    
Wind  
Wind Speed 7 mph ()    
Max Wind Speed 13 mph    
Max Gust Speed 18 mph    
Visibility 10.0 miles    
Events      
Averages and records for this station are not official NWS values.
T = Trace of Precipitation, MM = Missing Value Source: Averaged Metar Reports

Daily Weather History Graph

Daily Weather History Graph

Search for Another Location

Airport or City:

Astronomy

Sep. 17, 2019 Rise Set
Actual Time 6:36 AM EDT 6:59 PM EDT
Civil Twilight 6:08 AM EDT 7:27 PM EDT
Nautical Twilight 5:36 AM EDT 7:59 PM EDT
Astronomical Twilight 5:03 AM EDT 8:32 PM EDT
Moon 9:00 PM EDT (9/17) 9:38 AM EDT (9/17)
Length of Visible Light 13h 18m
Length of Day
12h 23m
Waning Gibbous, 89% of the Moon is Illuminated
Sep 17
Waning Gibbous
Sep 21
Last Quarter
Sep 28
New
Oct 5
First Quarter
Oct 13
Full

Hourly Weather History & Observations

Time (EDT) Temp. Dew Point Humidity Pressure Visibility Wind Dir Wind Speed Gust Speed Precip Events Conditions
12:53 AM 62.1 °F 50.0 °F 65% 30.07 in 10.0 mi NE 6.9 mph - N/A   Clear
1:53 AM 60.1 °F 51.1 °F 72% 30.08 in 10.0 mi NNE 6.9 mph - N/A   Clear
2:53 AM 60.1 °F 52.0 °F 75% 30.08 in 10.0 mi NNE 5.8 mph - N/A   Partly Cloudy
3:53 AM 59.0 °F 52.0 °F 78% 30.08 in 10.0 mi NNE 6.9 mph - N/A   Clear
4:53 AM 57.9 °F 51.1 °F 78% 30.09 in 10.0 mi NNE 8.1 mph - N/A   Clear
5:53 AM 57.0 °F 50.0 °F 77% 30.10 in 10.0 mi NNE 6.9 mph - N/A   Clear
6:53 AM 55.9 °F 50.0 °F 80% 30.12 in 10.0 mi NNE 6.9 mph - N/A   Clear
7:53 AM 61.0 °F 51.1 °F 70% 30.13 in 10.0 mi NNE 8.1 mph - N/A   Clear
8:53 AM 64.9 °F 52.0 °F 63% 30.14 in 10.0 mi NNE 8.1 mph - N/A   Clear
9:53 AM 68.0 °F 48.0 °F 49% 30.15 in 10.0 mi NNE 12.7 mph - N/A   Clear
10:53 AM 70.0 °F 48.0 °F 46% 30.15 in 10.0 mi NNE 9.2 mph - N/A   Clear
11:53 AM 72.0 °F 45.0 °F 38% 30.14 in 10.0 mi NE 10.4 mph 18.4 mph N/A   Clear
12:53 PM 73.0 °F 44.1 °F 35% 30.13 in 10.0 mi NNE 12.7 mph 17.3 mph N/A   Clear
1:53 PM 73.0 °F 44.1 °F 35% 30.12 in 10.0 mi Variable 4.6 mph 17.3 mph N/A   Clear
2:53 PM 73.9 °F 43.0 °F 33% 30.10 in 10.0 mi North 9.2 mph - N/A   Clear
3:53 PM 73.9 °F 45.0 °F 35% 30.09 in 10.0 mi North 9.2 mph - N/A   Clear
4:53 PM 75.0 °F 43.0 °F 32% 30.09 in 10.0 mi NNW 9.2 mph - N/A   Clear
5:53 PM 72.0 °F 45.0 °F 38% 30.10 in 10.0 mi NE 6.9 mph - N/A   Clear
6:53 PM 68.0 °F 46.0 °F 45% 30.11 in 10.0 mi East 5.8 mph - N/A   Clear
7:53 PM 64.9 °F 46.0 °F 50% 30.13 in 10.0 mi NE 4.6 mph - N/A   Clear
8:53 PM 64.9 °F 48.9 °F 56% 30.15 in 10.0 mi East 4.6 mph - N/A   Scattered Clouds
9:53 PM 63.0 °F 53.1 °F 70% 30.15 in 10.0 mi ESE 5.8 mph - N/A   Clear
10:53 PM 62.1 °F 52.0 °F 70% 30.15 in 10.0 mi ENE 3.5 mph - N/A   Clear
11:53 PM 59.0 °F 52.0 °F 78% 30.16 in 10.0 mi NE 3.5 mph - N/A   Clear